sat.trackr.live / text

‹ back to catalog

STARLINK-11270 [DTC]

NORAD 60999 · 2024-158K

PAYLOAD ACTIVE UNKNOWN

§ Identity

Operator
Country
US
Launch date
2024-09-05
Launch site
AFETR
Launch vehicle
Mass (kg)
RCS (m²)

Purposes: comms

External: N2YO · Heavens-Above · Gunter

§ Orbital elements

Epoch: 2026-05-25T05:17:03.293664Z

Period
91.73 min
Inclination
53.1566°
Eccentricity
0.0000824
Mean motion
15.69768056 rev/d
Perigee alt
359.0 km
Apogee alt
360.1 km
Semi-major
6,737.7 km
B*
1.5640e-3
RAAN
264.0651°
Arg perigee
67.9173°
Mean anomaly
292.1932°
Rev number
9,960

§ Raw data

STARLINK-11270 [DTC]1 60999U 24158K   26145.22017701  .00193849  00000+0  15640-2 0  99922 60999  53.1566 264.0651 0000824  67.9173 292.1932 15.69768056 99607

JSON: /api/v1/satellites/60999 · /tle

For live sub-satellite position, see the globe view (requires WebGL).

§ Visibility from observer

Set your observer location to see the next 7 days of passes ≥ 10°. The values pass through the URL so the page stays shareable.

No JS? Fill the form by hand. The geolocation button needs JavaScript.